Weather History for Frenchville, ME

Change the Weather History Date:

Tuesday, April 22, 2014

  Actual Average Record
Temperature  
Mean Temperature 39 °F 40 °F  
Max Temperature 44 °F 49 °F 66 °F (2004)
Min Temperature 34 °F 32 °F 21 °F (2002)
Degree Days  
Heating Degree Days 26    
Month to date heating degree days 681  
Since 1 July heating degree days 9197  
Cooling Degree Days 0    
Month to date cooling degree days 0  
Year to date cooling degree days 0  
Moisture  
Dew Point 35 °F    
Average Humidity 86    
Maximum Humidity 100    
Minimum Humidity 58    
Precipitation  
Precipitation 0.22 in 0.10 in 0.23 in (2012)
Month to date precipitation 1.83 2.07  
Year to date precipitation 5.78 6.12  
Sea Level Pressure  
Sea Level Pressure 29.62 in    
Wind  
Wind Speed 8 mph (East)    
Max Wind Speed 15 mph    
Max Gust Speed 21 mph    
Visibility 7 miles    
Events Rain    
T = Trace of Precipitation, MM = Missing Value Source: NWS Daily Summary

Daily Weather History Graph

Daily Weather History Graph

Search for Another Location

Airport:

Trip Planner

Search our weather history database for the weather conditions in past years. The results will help you decide how hot, cold, wet, or windy it might be!

Date:

Astronomy

Apr. 22, 2014 Rise Set
Actual Time 5:32 AM EDT 7:32 PM EDT
Civil Twilight 4:59 AM EDT 8:05 PM EDT
Nautical Twilight 4:18 AM EDT 8:45 PM EDT
Astronomical Twilight 3:33 AM EDT 9:31 PM EDT
Moon 1:47 AM EDT (4/22) 12:01 PM EDT (4/22)
Length of Visible Light 15h 05m
Length of Day
13h 59m
Last Quarter, 46% of the Moon is Illuminated
Apr 22
Last Quarter
Apr 29
New
May 6
First Quarter
May 14
Full
May 21
Last Quarter

Hourly Weather History & Observations

Time (EDT) Temp. Windchill Dew Point Humidity Pressure Visibility Wind Dir Wind Speed Gust Speed Precip Events Conditions
12:53 AM 39.9 °F 37.8 °F 28.0 °F 63% 29.78 in 10.0 mi NNE 3.5 mph - N/A   Clear
1:53 AM 39.9 °F - 27.0 °F 60% 29.77 in 10.0 mi Calm Calm - N/A   Clear
2:53 AM 37.9 °F - 28.0 °F 68% 29.76 in 10.0 mi Calm Calm - N/A   Clear
3:53 AM 35.1 °F 31.0 °F 28.0 °F 76% 29.75 in 10.0 mi North 4.6 mph - N/A   Clear
4:53 AM 34.0 °F 29.8 °F 27.0 °F 75% 29.73 in 10.0 mi North 4.6 mph - N/A   Clear
5:53 AM 35.1 °F 31.0 °F 28.0 °F 76% 29.73 in 10.0 mi North 4.6 mph - N/A   Clear
6:53 AM 35.1 °F 32.2 °F 28.0 °F 76% 29.74 in 10.0 mi NNW 3.5 mph - N/A   Clear
7:53 AM 37.0 °F 31.0 °F 28.0 °F 70% 29.73 in 10.0 mi East 8.1 mph - N/A   Overcast
8:53 AM 37.9 °F 30.9 °F 28.0 °F 68% 29.71 in 10.0 mi ESE 10.4 mph - N/A   Overcast
9:53 AM 43.0 °F 39.5 °F 28.9 °F 58% 29.70 in 10.0 mi ESE 5.8 mph - N/A   Overcast
10:53 AM 44.1 °F 40.1 °F 30.0 °F 58% 29.69 in 10.0 mi SE 6.9 mph - N/A   Overcast
11:53 AM 43.0 °F 37.7 °F 30.9 °F 62% 29.68 in 10.0 mi SSE 9.2 mph - N/A   Overcast
12:53 PM 42.1 °F 37.7 °F 34.0 °F 73% 29.67 in 10.0 mi SSE 6.9 mph - 0.00 in   Overcast
1:07 PM 42.1 °F 36.1 °F 34.0 °F 73% 29.64 in 10.0 mi SE 10.4 mph - 0.00 in Rain Light Rain
1:53 PM 43.0 °F 37.7 °F 34.0 °F 71% 29.64 in 10.0 mi SE 9.2 mph - 0.00 in Rain Light Rain
2:53 PM 41.0 °F 36.4 °F 37.0 °F 86% 29.63 in 9.0 mi East 6.9 mph - 0.01 in Rain Light Rain
3:44 PM 41.0 °F 35.2 °F 37.9 °F 89% 29.60 in 10.0 mi ESE 9.2 mph - 0.00 in Rain Light Rain
3:53 PM 41.0 °F 35.8 °F 39.0 °F 93% 29.61 in 10.0 mi East 8.1 mph - 0.00 in Rain Light Rain
4:53 PM 41.0 °F 35.8 °F 39.0 °F 93% 29.60 in 7.0 mi East 8.1 mph - 0.02 in Rain Light Rain
5:53 PM 41.0 °F 34.7 °F 39.9 °F 96% 29.57 in 8.0 mi ENE 10.4 mph - 0.00 in Rain Light Rain
6:07 PM 41.0 °F 35.8 °F 39.9 °F 96% 29.55 in 5.0 mi East 8.1 mph - 0.01 in Rain Light Rain
6:24 PM 41.0 °F 35.2 °F 39.9 °F 96% 29.55 in 6.0 mi East 9.2 mph - 0.01 in Rain Light Rain
6:28 PM 41.0 °F 35.2 °F 39.9 °F 96% 29.55 in 6.0 mi East 9.2 mph - 0.01 in Rain Light Rain
6:37 PM 41.0 °F 35.8 °F 39.9 °F 96% 29.54 in 5.0 mi ENE 8.1 mph - 0.01 in Rain Light Rain
6:53 PM 41.0 °F 35.8 °F 39.9 °F 96% 29.55 in 4.0 mi ENE 8.1 mph - 0.02 in Rain Light Rain
7:08 PM 41.0 °F 35.8 °F 39.9 °F 96% 29.54 in 6.0 mi ENE 8.1 mph - 0.00 in Rain Light Rain
7:29 PM 39.9 °F 33.4 °F 39.0 °F 97% 29.54 in 7.0 mi East 10.4 mph - 0.00 in Rain Light Rain
7:53 PM 39.9 °F 33.4 °F 39.0 °F 97% 29.57 in 9.0 mi East 10.4 mph - 0.00 in Rain Light Rain
8:40 PM 39.0 °F 32.3 °F 39.0 °F 100% 29.55 in 7.0 mi East 10.4 mph - 0.00 in   Overcast
8:53 PM 39.0 °F 31.8 °F 39.0 °F 100% 29.57 in 6.0 mi East 11.5 mph - 0.00 in   Overcast
9:53 PM 37.9 °F 30.5 °F 37.9 °F 100% 29.56 in 2.5 mi East 11.5 mph - 0.02 in Rain Light Rain
10:05 PM 37.9 °F 30.0 °F 37.9 °F 100% 29.54 in 3.0 mi East 12.7 mph - 0.00 in Rain Light Rain
10:53 PM 37.9 °F 30.0 °F 37.0 °F 97% 29.54 in 3.0 mi East 12.7 mph - 0.06 in Rain Rain
11:02 PM 37.0 °F 30.4 °F 37.0 °F 100% 29.52 in 2.0 mi East 9.2 mph - 0.01 in Rain Rain
11:13 PM 37.0 °F 29.8 °F 37.0 °F 100% 29.52 in 1.5 mi East 10.4 mph - 0.02 in Rain Light Rain
11:22 PM 37.0 °F 29.8 °F 37.0 °F 100% 29.51 in 2.0 mi East 10.4 mph - 0.04 in Rain Rain
11:44 PM 37.0 °F 28.9 °F 37.0 °F 100% 29.50 in 3.0 mi East 12.7 mph - 0.06 in Rain Light Rain
11:53 PM 37.0 °F 28.9 °F 37.0 °F 100% 29.51 in 3.0 mi East 12.7 mph 20.7 mph 0.06 in Rain Light Rain